SCP
1 1 0 0 0 0 0 0 0 0 0 0 0 0 0 0 0 0 0 0 0 0 0 0 0 0 0 0 0 0 0 0 0 0 0 0 0 0 0 1 0 0 0 0
1 0 0 0 0 0 0 0 0 0 0 0 0 0 0 0 0 0 0 0 0 0 0 0 0 0 0 0 0 0 0 0 0 0 0 0 0 0 0 1 0 0 0 0
0 0 0 0 0 0 0 0 0 0 0 0 0 0 0 0 0 0 0 0 0 0 0 0 0 0 0 0 0 0 0 0 0 0 0 0 0 0 0 1 1 1 0 0
0 0 0 0 0 0 0 0 0 0 0 0 0 0 0 0 0 0 0 0 0 0 0 0 0 0 0 0 0 0 0 0 0 0 0 0 0 0 1 1 1 1 1 1
0 0 0 0 0 0 0 0 0 0 0 0 0 0 0 0 0 0 0 0 0 0 0 0 0 0 0 0 0 0 0 0 0 0 0 0 0 0 1 1 1 1 1 1
0 0 0 0 0 0 0 0 0 0 0 0 0 0 0 0 0 0 0 0 0 0 0 0 0 0 0 0 0 0 0 0 0 0 0 0 0 0 0 0 1 1 1 1
0 0 0 0 0 0 0 0 0 0 0 0 0 0 0 0 0 0 0 0 0 0 0 0 0 0 0 0 0 0 0 0 0 0 0 0 0 0 0 0 1 1 1 1
0 0 0 0 0 0 0 0 0 0 0 0 0 0 0 0 0 0 0 0 0 0 0 0 0 0 0 0 0 0 0 0 0 0 0 0 0 0 0 0 0 1 1 1
0 0 0 0 0 0 0 0 0 0 0 0 0 0 0 0 0 0 0 0 0 0 0 0 0 0 0 0 0 0 0 0 0 0 0 0 0 0 0 0 0 0 1 1
0 0 0 0 0 0 0 0 0 0 0 0 0 0 0 0 0 0 0 0 0 0 0 0 0 0 0 0 0 0 0 0 0 0 0 0 0 0 0 0 0 0 0 0
0 0 0 0 0 0 0 0 0 0 0 0 0 0 0 0 0 0 0 0 0 0 0 0 0 0 0 0 0 0 0 0 0 0 0 0 0 0 0 0 0 0 0 0
0 0 0 0 0 0 0 0 0 0 0 0 0 0 0 0 0 0 0 0 0 0 0 0 0 0 0 0 0 0 0 0 0 0 0 0 0 0 0 0 0 0 0 0
0 0 0 0 0 0 0 0 0 0 0 0 0 0 0 0 0 0 0 0 0 0 0 0 0 0 0 0 0 0 0 0 0 0 0 0 0 0 0 0 0 0 0 0
1 0 0 0 0 0 0 0 0 0 0 0 0 0 0 0 0 0 0 0 0 0 0 0 0 0 0 0 0 0 0 0 0 0 0 0 0 0 0 0 0 0 1 1
1 0 0 0 0 0 0 0 0 0 0 0 0 0 0 0 0 0 0 0 0 0 0 0 0 0 0 0 0 0 0 0 0 0 0 0 0 0 0 0 0 0 1 1
0 0 0 0 0 0 0 0 0 0 0 0 0 0 0 0 0 0 0 0 0 0 0 0 0 0 0 0 0 0 0 0 0 0 0 0 0 0 0 0 0 0 0 0
0 0 0 0 0 0 0 0 0 0 0 0 0 0 0 0 0 0 0 0 0 0 0 0 0 0 0 0 0 0 0 0 0 0 0 0 0 0 0 0 0 0 0 0
0 0 0 0 0 0 0 0 0 0 0 0 0 0 0 0 0 0 0 0 0 0 0 0 0 0 0 0 0 0 0 0 0 0 0 0 0 0 0 0 0 0 0 0
0 0 0 0 0 0 0 0 0 0 0 0 0 0 0 0 0 0 0 0 0 0 0 0 0 0 0 0 0 0 0 0 0 0 0 0 0 0 0 0 0 0 0 0
0 0 0 0 0 0 0 0 0 0 0 0 0 0 0 0 0 0 0 0 0 0 0 0 0 0 0 0 0 0 0 0 0 0 0 0 0 0 0 0 0 0 0 0
0 0 0 0 0 0 0 0 0 0 0 0 0 0 0 0 0 0 0 0 0 0 0 0 0 0 0 0 0 0 0 0 0 0 0 0 0 0 0 0 0 0 0 0
0 0 0 0 0 0 0 0 0 0 0 0 0 0 0 0 0 0 0 0 0 0 0 0 0 0 0 0 0 0 0 0 0 0 0 0 0 0 0 0 0 0 0 0
0 0 0 0 0 0 0 0 0 0 0 0 0 0 0 0 0 0 0 0 0 0 0 0 0 0 0 0 0 0 0 0 0 0 0 0 0 0 0 0 0 0 0 0
0 0 0 0 0 0 0 0 0 0 0 0 0 0 0 0 0 0 0 0 0 0 0 0 0 0 0 0 0 0 0 0 0 0 0 0 0 0 0 0 0 0 0 0
0 0 0 0 0 0 0 0 0 0 0 0 0 0 0 0 0 0 0 0 0 0 0 0 0 0 0 0 0 0 0 0 0 0 0 0 0 0 0 0 0 0 0 0
0 0 0 0 0 0 0 0 0 0 0 0 0 0 0 0 0 0 0 0 0 0 0 0 0 0 0 0 0 0 0 0 0 0 0 0 0 0 0 0 0 0 0 0
Wind_Speed
7 7 13 15 13 6 7 7 8 6 4 5 10 13 13 9 8 9 10 9 10 12 12 10 10 10 9 10 11 13 13 13 10 8 9 9 10 9 7 8 9 10 10 11
8 16 13 8 9 8 7 8 7 4 3 4 7 12 11 10 10 11 12 12 12 11 10 9 8 8 10 11 12 13 14 13 13 11 10 7 6 6 7 6 8 10 11 11
16 7 10 9 9 12 12 11 9 6 2 3 4 10 10 10 9 9 10 11 11 13 13 11 10 10 10 11 13 12 14 14 13 12 6 4 3 3 5 8 10 12 13 12
13 7 9 11 12 13 15 9 8 6 4 5 4 10 9 9 10 11 12 11 12 13 13 11 10 9 10 12 11 12 12 12 12 11 9 11 11 12 13 10 8 9 11 12
11 11 12 14 13 13 6 7 8 8 7 7 6 9 9 5 10 10 11 13 14 13 13 12 11 11 10 9 9 10 10 11 11 11 13 13 13 12 7 6 8 9 9 12
6 6 11 11 8 10 6 5 2 3 5 14 14 11 11 8 11 9 10 11 12 12 11 10 9 8 7 6 6 7 8 9 10 12 12 14 14 12 9 9 10 10 9 9
8 7 5 5 9 8 8 7 5 7 9 12 8 11 13 9 10 13 13 12 11 9 8 7 7 6 6 5 6 6 7 9 9 10 12 13 14 13 14 12 11 10 9 10
13 11 12 9 12 12 14 13 10 9 8 5 5 13 11 8 10 9 10 8 7 7 6 6 6 6 5 5 4 5 6 8 8 9 11 11 12 10 9 11 9 10 10 10
13 10 6 10 7 13 12 12 8 4 3 4 8 8 9 5 7 7 8 7 8 7 5 4 3 3 3 3 3 4 5 5 5 7 8 8 9 10 10 9 10 9 9 7
7 7 6 7 5 8 10 10 7 8 8 10 8 8 8 6 8 8 8 8 8 5 3 3 2 2 2 2 1 1 2 3 4 4 5 5 6 8 8 7 8 9 9 9
6 7 5 8 14 16 9 10 8 8 6 8 8 9 8 10 10 9 8 7 6 4 3 2 1 1 1 1 1 1 1 1 2 3 3 4 5 5 6 7 9 9 8 9
8 6 5 9 8 10 12 13 13 10 9 7 7 10 4 6 5 5 5 3 3 3 2 1 0 1 2 2 2 2 2 2 3 3 3 3 4 4 5 7 8 8 8 8
11 8 6 4 5 6 10 11 15 11 6 7 9 11 3 2 3 3 3 3 2 2 1 1 1 1 1 2 2 2 2 3 3 3 3 4 4 4 5 6 7 6 7 8
12 7 11 15 9 9 10 11 13 14 11 13 14 14 9 5 5 5 4 3 3 2 1 0 1 1 2 2 2 3 3 3 3 3 3 4 5 5 6 6 6 6 6 7
8 9 8 8 5 7 9 12 15 18 17 14 13 16 17 11 8 7 5 4 3 2 2 1 1 1 2 3 3 3 4 4 3 3 3 5 5 5 6 6 6 6 6 6
7 7 7 8 7 7 8 12 15 18 16 16 13 16 14 9 5 6 6 5 4 4 3 2 1 2 2 3 3 3 4 4 3 3 4 5 5 6 6 6 7 6 6 6
8 8 8 9 6 5 13 15 16 12 12 14 19 20 10 8 9 9 7 6 6 4 3 2 1 1 2 3 3 4 4 4 4 4 4 5 5 6 6 7 6 6 7 6
9 7 5 5 6 16 13 9 13 14 14 13 12 10 10 11 8 5 5 6 5 4 2 1 1 2 2 3 4 4 4 4 4 4 5 5 6 7 7 6 6 7 6 6
9 9 6 6 8 8 9 7 11 13 13 13 14 12 10 7 2 4 2 3 4 3 2 1 1 1 1 3 3 4 4 4 4 5 5 6 6 7 7 7 7 6 6 6
6 7 7 6 7 11 12 7 7 7 10 9 11 11 10 7 7 8 3 2 1 1 1 0 1 1 2 3 4 4 5 5 5 6 7 7 6 7 7 8 7 6 6 7
8 7 10 9 8 10 9 4 8 10 11 5 8 9 8 8 7 4 2 1 1 1 0 1 1 1 2 3 4 4 5 5 6 7 7 7 6 7 7 7 6 6 6 6
11 9 9 8 9 13 5 7 10 8 3 3 4 4 5 4 3 1 2 2 1 0 1 1 1 2 2 3 3 4 5 6 7 7 7 7 7 6 6 6 7 5 5 6
9 9 7 9 9 2 2 4 2 1 3 2 2 2 3 3 3 2 2 2 1 1 0 1 1 3 3 3 3 4 6 7 7 7 8 7 7 6 6 6 7 6 4 5
4 2 4 4 5 3 2 2 1 1 1 1 1 1 1 2 3 2 2 1 1 1 1 1 2 3 4 4 4 4 6 7 6 7 8 7 7 7 6 5 5 5 5 5
6 4 4 5 3 1 2 2 1 1 2 2 2 1 1 1 1 2 2 2 2 2 2 1 2 4 5 5 5 6 6 6 6 7 7 7 6 6 6 6 5 6 6 6
4 6 7 7 5 5 4 3 2 2 1 1 1 1 1 0 1 2 2 2 2 3 3 3 3 4 5 5 6 6 6 5 6 6 6 6 5 5 5 6 7 7 9 10
Wind_Direction
174 189 206 204 203 198 178 187 208 221 222 209 234 247 255 251 248 250 251 250 249 247 249 244 233 225 218 214 210 208 205 204 195 194 201 208 217 216 215 215 212 210 210 209
184 219 212 189 194 202 204 215 224 251 240 223 254 260 258 246 234 233 239 243 247 252 260 254 239 226 217 214 212 210 209 204 201 205 205 206 207 214 217 215 216 215 214 213
204 206 175 178 189 203 216 214 212 221 299 287 293 282 255 253 237 240 238 237 241 242 247 248 241 229 222 219 215 212 211 207 205 204 194 192 194 212 214 218 222 220 218 217
219 212 174 186 200 195 225 208 202 208 218 251 213 271 257 242 252 243 241 240 242 244 245 244 239 233 223 222 216 213 211 208 206 199 196 198 207 218 222 222 222 218 216 219
213 190 189 202 202 186 203 172 192 205 216 247 223 255 266 221 246 247 240 240 241 241 240 240 236 231 228 221 214 212 210 210 205 200 203 206 217 226 227 218 221 220 218 220
221 193 196 203 192 179 147 129 155 188 212 244 223 228 262 208 220 234 237 238 239 240 241 241 241 239 239 229 217 212 208 213 208 204 206 210 218 223 222 221 225 226 225 224
216 222 213 167 161 174 163 158 194 210 219 242 189 214 249 214 210 216 229 236 237 237 237 237 241 240 237 228 218 212 209 217 212 207 211 215 220 222 224 225 227 228 229 228
196 213 203 191 182 184 191 184 197 207 215 249 197 228 250 227 228 231 234 236 240 241 238 241 244 239 241 239 227 216 216 223 218 213 217 220 223 224 229 230 229 228 231 232
192 216 190 195 176 165 180 204 202 190 195 238 235 257 290 252 243 240 240 235 236 239 241 244 252 254 250 247 236 220 222 233 231 224 225 226 226 228 232 233 231 234 237 236
169 199 205 187 164 196 181 164 165 198 209 232 241 235 237 230 229 231 233 235 242 240 238 244 256 268 271 264 268 234 216 234 243 241 236 236 234 235 239 240 239 239 240 236
176 182 191 175 192 193 178 185 187 192 196 208 241 249 218 213 212 216 226 230 229 223 221 236 266 289 307 360 25 19 344 305 293 270 255 251 250 245 243 243 246 246 247 242
184 174 205 216 218 202 193 196 189 201 213 209 232 256 229 205 213 210 220 226 223 219 218 217 276 352 8 8 5 360 343 328 308 299 288 273 267 261 255 253 254 252 251 246
172 177 195 231 233 208 208 207 205 208 204 208 223 252 251 234 235 222 210 223 235 242 259 342 1 1 359 354 348 342 334 323 322 325 318 309 301 289 276 271 270 264 259 256
174 183 202 213 205 187 201 209 205 205 220 227 228 248 260 265 259 259 246 232 237 242 241 289 332 339 345 349 349 346 333 327 327 331 326 318 312 306 297 292 287 280 272 266
179 203 215 226 204 186 201 208 210 216 220 225 234 240 249 243 235 239 235 230 229 235 235 233 257 313 332 337 338 338 329 331 335 335 328 314 313 315 311 306 300 295 286 277
181 198 203 228 216 207 219 217 216 223 226 232 242 250 248 244 229 233 233 225 226 232 231 231 272 308 317 322 326 328 325 327 336 335 323 320 323 323 318 313 310 305 296 290
178 174 186 226 215 212 235 220 213 217 217 215 231 242 246 243 230 224 220 219 224 225 212 213 245 291 318 328 334 329 325 331 336 327 324 323 320 317 313 313 313 307 302 298
176 179 181 191 188 228 238 208 204 219 228 222 228 236 232 235 235 223 209 208 219 223 215 242 283 319 336 338 339 338 340 338 331 326 325 324 321 315 312 311 307 303 302 296
183 176 176 186 216 249 269 221 192 203 233 224 229 239 241 235 227 252 234 200 201 199 198 227 252 281 321 334 336 343 344 342 340 333 326 322 317 310 310 308 303 300 299 294
187 178 178 186 203 223 237 214 182 169 240 227 214 226 231 204 220 237 221 196 188 161 137 230 345 6 351 339 345 346 337 337 331 322 316 313 308 302 299 297 296 296 294 291
177 189 201 204 220 245 246 209 143 182 230 215 199 209 213 214 227 227 175 154 156 159 127 81 50 20 341 340 344 336 330 323 317 313 310 308 306 300 294 293 292 295 295 294
182 186 197 191 212 239 219 161 184 206 192 181 185 198 200 209 221 205 174 174 170 154 33 35 17 340 333 345 342 326 317 314 314 313 311 310 309 304 300 297 297 294 293 295
197 191 187 198 215 222 148 176 193 133 169 187 177 185 178 203 226 223 210 194 195 203 283 349 335 316 322 333 335 312 311 317 317 316 311 307 306 302 297 292 293 295 289 285
228 177 164 209 232 203 165 133 62 71 134 128 116 134 159 203 215 210 215 224 248 273 281 314 315 304 305 316 320 308 311 317 314 310 309 307 306 305 302 292 284 281 278 277
202 175 183 218 219 179 239 227 182 91 63 59 52 56 145 177 231 237 245 252 265 289 295 294 286 287 295 311 315 315 315 314 308 305 304 304 301 300 302 295 282 278 268 258
199 187 190 214 200 190 201 181 139 134 169 198 164 5 17 148 247 263 263 280 294 297 308 308 301 298 302 308 305 307 309 307 302 302 303 300 299 299 298 299 300 283 270 273